Regional Weather Roundup
Issued by NWS Midland/Odessa, TX

Skip options and go directly to product.
Home | Oldest Version | Previous Version | Current Version | All | Text Only | Save Text | Print | Product List | Glossary On

Skip product version selection by date and time.   
892
ASUS44 KMAF 250810
RWRMAF
MIDLAND AREA WEATHER ROUNDUP
NATIONAL WEATHER SERVICE MIDLAND TX
300 AM CDT SAT APR 25 2015

...IN SOUTHWEST TEXAS AND SOUTHEAST NEW MEXICO...

CITY           SKY/WX    TMP DP  RH WIND       PRES   REMARKS
ALPINE         CLEAR     49  32  52 SW9       30.04S
ANDREWS        FAIR      61  28  28 W14       29.86S
ARTESIA        CLEAR     57  28  33 W12       29.89S
BIG SPRING     CLEAR     60  29  30 SW12      29.84S
CARLSBAD       CLEAR     58  28  32 W10       29.87F
DRYDEN           N/A     65  62  90 NE6       29.85S
FORT STOCKTON  CLEAR     57  28  33 W8        29.91S
GUAD PASS      CLEAR     51  27  39 SW20G30   29.98R
HOBBS          CLEAR     52  27  37 W10       29.89S
MARFA          CLEAR     46  30  53 CALM      30.02R
MIDLAND AIRPK  CLEAR     61  31  31 W14       29.84S
MIDLAND INTL   CLEAR     60  30  32 W15       29.83F
ODESSA         CLEAR     57  29  34 W12       29.85F
PECOS          CLEAR     56  28  33 W14       29.88S
PRESIDIO       FAIR      58  27  30 NW6G16    29.93R
SEMINOLE       CLEAR     55  28  36 SW7       29.87S
SNYDER         CLEAR     52  38  59 SW7       29.79S
WINK           CLEAR     53  24  32 W7        29.85F
$$
...OTHER STATIONS IN TEXAS...

CITY           SKY/WX    TMP DP  RH WIND       PRES   REMARKS
ABILENE        CLEAR     58  46  64 SW7       29.76F
AMARILLO       CLEAR     59  27  29 W20       29.72F
AUSTIN         MOCLDY    73  72  96 SW5       29.75F
BROWNSVILLE    CLOUDY    79  76  90 SE20G26   29.70R
CORPUS CHRISTI CLOUDY    77  74  90 E16       29.71F THUNDER FOG
DALLAS FTW     PTCLDY    60  59  96 SW10      29.67F
DEL RIO        MOCLDY    73  70  90 CALM      29.78S FOG
EL PASO        PTCLDY    60  29  30 SW6       29.95S
HOUSTON INT    LGT RAIN  77  74  90 S17G26    29.78R
LUBBOCK        CLEAR     52  33  48 W10       29.80S
SAN ANGELO     CLEAR     56  48  74 W7        29.81S
SAN ANTONIO    CLOUDY    72  68  87 CALM      29.75F
WACO           CLOUDY    64  62  93 W7        29.73R
WICHITA FALLS  NOT AVBL
$$
...OTHER LOCATIONS IN NEW MEXICO...

CITY           SKY/WX    TMP DP  RH WIND       PRES   REMARKS
ALAMAGORDO     CLEAR     50  28  43 SE6       29.95F
ALBUQUERQUE    PTCLDY    51  33  50 W9        29.96F
CANNON AFB     CLEAR     48  31  52 W14       29.84R
CLOVIS         CLEAR     52  30  43 W16       29.83R
HOLLOMAN AFB   CLEAR     51  31  45 CALM      29.93S
ROSWELL        CLEAR     59  30  33 W14       29.87R
RUIDOSO        CLEAR     46  27  46 W12       30.02R
SANTA FE       CLEAR     39  28  64 CALM      29.95S
TRUTH OR CONSE CLEAR     53  31  42 NW7       29.96F
TUCUMCARI      CLEAR     54  28  36 W16       29.77F
$$

USA.gov is the U.S. government's official web portal to all federal, state and local government web resources and services.